| time (UTC) | temp C | wind direction | speed KPH | gust KPH | rain 1hr cm | rain 24hr cm | rain mn cm | humidity % | barometer mb |
| 20260504190041 | 10 | 349 | 16.1 | 38.6 | 0.00 | 0.00 | 0.00 | 50 | 1013.7 |
| 20260504184508 | 10 | 312 | 19.3 | 33.8 | 0.00 | 0.00 | 0.00 | 50 | 1013.6 |
| 20260504183009 | 10 | 321 | 19.3 | 33.8 | 0.00 | 0.00 | 0.00 | 50 | 1013.5 |
| 20260504181503 | 10 | 332 | 14.5 | 35.4 | 0.00 | 0.00 | 0.00 | 51 | 1013.5 |
| 20260504180002 | 10 | 342 | 20.9 | 33.8 | 0.00 | 0.00 | 0.00 | 51 | 1013.7 |
| 20260504174601 | 10 | 355 | 17.7 | 37.0 | 0.00 | 0.00 | 0.00 | 53 | 1013.7 |
| 20260504173059 | 10 | 351 | 20.9 | 38.6 | 0.00 | 0.00 | 0.00 | 52 | 1013.8 |
| 20260504171556 | 10 | 339 | 19.3 | 32.2 | 0.00 | 0.00 | 0.00 | 52 | 1013.6 |
| 20260504120109 | 6 | 3 | 19.3 | 27.4 | 0.00 | 0.03 | 0.00 | 66 | 1010.1 |
| 20260504081511 | 3 | 216 | 1.6 | 6.4 | 0.00 | 0.03 | 0.00 | 73 | 1007.9 |
| 20260504044535 | 6 | 283 | 0.0 | 3.2 | 0.00 | 0.03 | 0.03 | 56 | 1008.8 |
| 20260504043039 | 6 | 347 | 1.6 | 4.8 | 0.00 | 0.03 | 0.03 | 56 | 1008.9 |
| 20260504041528 | 6 | 255 | 1.6 | 4.8 | 0.00 | 0.03 | 0.03 | 54 | 1008.9 |
| 20260504040104 | 7 | 314 | 1.6 | 8.0 | 0.00 | 0.03 | 0.03 | 53 | 1008.9 |
| 20260504034613 | 7 | 89 | 0.0 | 3.2 | 0.00 | 0.03 | 0.03 | 52 | 1009.2 |
| 20260504033058 | 7 | 269 | 0.0 | 4.8 | 0.00 | 0.03 | 0.03 | 50 | 1009.2 |
| 20260504031602 | 8 | 344 | 1.6 | 4.8 | 0.00 | 0.03 | 0.03 | 46 | 1009.1 |
| 20260504030052 | 8 | 240 | 0.0 | 4.8 | 0.00 | 0.03 | 0.03 | 43 | 1009.0 |
| 20260504024554 | 10 | 279 | 1.6 | 4.8 | 0.00 | 0.03 | 0.03 | 40 | 1009.0 |
| 20260504023050 | 11 | 250 | 1.6 | 4.8 | 0.00 | 0.03 | 0.03 | 35 | 1008.9 |
| 20260504021550 | 13 | 324 | 1.6 | 4.8 | 0.00 | 0.03 | 0.03 | 31 | 1008.7 |
| 20260504014552 | 16 | 322 | 3.2 | 9.7 | 0.00 | 0.03 | 0.03 | 25 | 1008.5 |
| 20260504013048 | 17 | 307 | 4.8 | 11.3 | 0.00 | 0.03 | 0.03 | 23 | 1008.6 |
| 20260504011546 | 18 | 293 | 6.4 | 17.7 | 0.00 | 0.03 | 0.03 | 21 | 1009.0 |
| 20260504010039 | 18 | 307 | 9.7 | 20.9 | 0.00 | 0.03 | 0.03 | 23 | 1009.1 |
| 20260504004538 | 19 | 308 | 9.7 | 22.5 | 0.00 | 0.03 | 0.03 | 22 | 1009.2 |
| 20260504003036 | 20 | 320 | 11.3 | 27.4 | 0.00 | 0.03 | 0.03 | 22 | 1009.2 |
| 20260504001537 | 20 | 320 | 11.3 | 27.4 | 0.00 | 0.03 | 0.03 | 23 | 1009.3 |
| 20260504000037 | 20 | 317 | 9.7 | 22.5 | 0.00 | 0.03 | 0.03 | 24 | 1009.4 |
| 20260503234532 | 20 | 330 | 14.5 | 27.4 | 0.00 | 0.03 | 0.03 | 24 | 1009.6 |
| 20260503233029 | 21 | 334 | 11.3 | 29.0 | 0.00 | 0.03 | 0.03 | 27 | 1009.5 |
| 20260503231526 | 20 | 277 | 14.5 | 25.7 | 0.00 | 0.03 | 0.03 | 27 | 1009.6 |
| 20260503230025 | 20 | 331 | 12.9 | 22.5 | 0.00 | 0.03 | 0.03 | 28 | 1009.6 |
| 20260503224526 | 20 | 314 | 11.3 | 25.7 | 0.00 | 0.03 | 0.03 | 26 | 1009.6 |
| 20260503223023 | 20 | 353 | 17.7 | 32.2 | 0.00 | 0.03 | 0.03 | 26 | 1009.7 |
| 20260503221521 | 20 | 323 | 11.3 | 27.4 | 0.00 | 0.03 | 0.03 | 27 | 1009.8 |
| 20260503220018 | 21 | 307 | 9.7 | 30.6 | 0.00 | 0.03 | 0.03 | 27 | 1010.1 |
| 20260503214534 | 20 | 325 | 11.3 | 32.2 | 0.00 | 0.03 | 0.03 | 26 | 1010.3 |
| 20260503213054 | 21 | 319 | 12.9 | 24.1 | 0.00 | 0.03 | 0.03 | 26 | 1010.4 |
| 20260503211603 | 20 | 358 | 20.9 | 33.8 | 0.00 | 0.03 | 0.03 | 29 | 1010.8 |
| 20260503210038 | 20 | 356 | 14.5 | 29.0 | 0.00 | 0.03 | 0.03 | 29 | 1011.1 |
| 20260503204539 | 20 | 344 | 9.7 | 25.7 | 0.00 | 0.03 | 0.03 | 29 | 1011.2 |
| 20260503203041 | 20 | 328 | 11.3 | 38.6 | 0.00 | 0.03 | 0.03 | 30 | 1011.3 |
| 20260503201532 | 20 | 339 | 11.3 | 25.7 | 0.00 | 0.03 | 0.03 | 31 | 1011.4 |
| 20260503200034 | 19 | 290 | 4.8 | 19.3 | 0.00 | 0.03 | 0.03 | 35 | 1011.7 |
| 20260503194523 | 18 | 240 | 3.2 | 24.1 | 0.00 | 0.03 | 0.03 | 39 | 1012.1 |
| 20260503193028 | 18 | 206 | 12.9 | 19.3 | 0.00 | 0.03 | 0.03 | 39 | 1012.2 |
| 20260503191520 | 17 | 222 | 14.5 | 22.5 | 0.00 | 0.03 | 0.03 | 40 | 1012.4 |